Total_Precipitation_Accumulation
1.86 1.77 2.60 3.93 4.15 3.47 2.96 2.46 1.84 1.48 1.03 0.85 0.79 0.92 1.20 1.56 1.85 2.15 2.42 2.33 1.55 1.25 1.22 1.79 2.51 2.45 2.26 2.25 2.21 2.14 2.10 2.06 1.84 1.69 1.52 1.37 1.23 1.19 1.18 1.21 1.20 1.15 1.03 1.02 1.15 1.27 1.38 1.42 1.45
1.47 2.13 3.14 4.35 3.88 3.11 2.86 2.41 1.83 1.25 0.78 0.61 0.55 0.65 0.77 0.75 0.80 1.35 2.34 2.38 1.33 1.03 1.06 1.38 2.06 2.09 2.03 2.04 1.97 1.92 1.79 1.66 1.68 1.68 1.50 1.35 1.21 1.18 1.23 1.26 1.19 1.15 1.05 1.07 1.15 1.24 1.31 1.35 1.38
1.65 2.78 3.74 3.92 3.14 2.91 2.83 2.20 1.50 0.86 0.55 0.49 0.49 0.52 0.60 0.85 0.99 1.49 2.13 1.70 1.06 0.87 1.02 1.52 1.99 1.94 1.93 1.89 1.73 1.72 1.59 1.46 1.45 1.48 1.42 1.41 1.29 1.18 1.16 1.21 1.21 1.20 1.14 1.11 1.13 1.17 1.23 1.29 1.31
1.86 2.99 3.31 3.05 2.75 2.33 1.96 1.60 1.19 0.99 0.64 0.38 0.36 0.48 0.54 0.92 1.21 1.40 1.44 1.15 0.97 0.98 1.01 1.30 1.71 1.74 1.74 1.67 1.61 1.59 1.49 1.47 1.36 1.28 1.30 1.34 1.30 1.23 1.15 1.22 1.19 1.13 1.16 1.20 1.22 1.24 1.30 1.29 1.27
2.38 3.05 2.91 2.52 2.31 1.90 1.43 1.12 0.95 0.96 0.77 0.44 0.32 0.52 0.78 1.17 1.29 1.15 1.02 0.84 0.82 0.89 0.86 1.04 1.53 1.58 1.57 1.54 1.54 1.56 1.49 1.44 1.31 1.23 1.30 1.43 1.36 1.28 1.20 1.24 1.20 1.14 1.13 1.18 1.21 1.25 1.29 1.22 1.23
2.65 2.71 2.69 2.38 2.27 1.86 1.43 1.02 0.81 0.76 0.61 0.42 0.34 0.55 0.88 1.19 1.36 1.20 1.04 1.03 0.98 0.99 0.89 0.97 1.50 1.63 1.52 1.51 1.46 1.49 1.54 1.47 1.33 1.25 1.23 1.29 1.29 1.21 1.19 1.16 1.18 1.16 1.13 1.18 1.19 1.21 1.24 1.14 1.10
2.54 2.50 2.31 1.96 2.10 2.27 1.66 1.02 0.86 0.84 0.67 0.46 0.34 0.59 0.89 1.15 1.16 1.12 1.18 1.24 1.25 1.30 1.23 1.24 1.40 1.46 1.53 1.48 1.40 1.55 1.68 1.56 1.36 1.22 1.18 1.13 1.15 1.12 1.10 1.09 1.17 1.16 1.14 1.16 1.18 1.21 1.25 1.15 1.06
2.01 2.06 1.91 1.91 2.14 2.35 1.55 1.02 0.83 0.77 0.68 0.35 0.30 0.57 0.85 0.85 0.87 1.02 1.17 1.19 1.17 1.25 1.21 1.25 1.36 1.37 1.37 1.41 1.54 1.71 2.03 1.92 1.52 1.27 1.10 1.05 1.00 1.01 1.10 1.07 1.11 1.18 1.22 1.26 1.27 1.30 1.27 1.24 1.14
1.86 2.18 2.30 2.40 2.41 2.11 1.39 1.19 0.93 0.62 0.55 0.40 0.36 0.47 0.56 0.55 0.71 0.84 0.97 0.98 0.96 0.96 1.01 1.10 1.18 1.22 1.29 1.26 1.44 1.79 2.12 2.16 1.77 1.43 1.27 1.05 0.77 0.77 0.96 1.10 1.23 1.34 1.39 1.45 1.50 1.49 1.41 1.31 1.18
1.81 2.14 2.11 1.87 1.56 1.30 1.13 1.04 0.89 0.76 0.77 0.60 0.50 0.48 0.50 0.54 0.75 0.84 0.84 0.88 0.84 0.76 0.72 0.75 0.80 0.90 0.97 0.99 1.25 1.53 1.60 1.79 1.52 1.45 1.32 1.15 1.09 1.01 0.85 0.95 1.26 1.47 1.47 1.49 1.57 1.60 1.37 1.08 0.87
1.59 1.65 1.49 1.36 1.03 0.83 0.83 0.76 0.66 0.67 0.76 0.66 0.62 0.48 0.52 0.59 0.68 0.72 0.69 0.68 0.69 0.68 0.65 0.60 0.61 0.68 0.79 0.91 1.09 1.29 1.45 1.60 1.58 1.52 1.46 1.47 1.43 1.09 0.94 1.01 1.12 1.25 1.29 1.22 1.31 1.31 1.06 0.87 0.80
1.54 1.28 1.16 1.09 0.76 0.74 0.76 0.64 0.56 0.54 0.51 0.39 0.48 0.43 0.47 0.54 0.57 0.55 0.56 0.58 0.56 0.59 0.69 0.64 0.50 0.52 0.59 0.68 0.86 1.04 1.24 1.43 1.45 1.26 1.18 1.32 1.35 1.16 1.03 1.17 1.24 1.28 1.29 1.35 1.36 1.30 1.13 0.89 0.83
1.47 1.40 1.15 1.01 0.77 0.75 0.69 0.63 0.52 0.44 0.40 0.32 0.38 0.49 0.54 0.59 0.58 0.52 0.49 0.53 0.53 0.58 0.66 0.69 0.60 0.54 0.56 0.61 0.70 0.74 1.02 1.19 1.31 1.35 1.14 1.26 1.30 1.24 1.12 1.06 1.25 1.23 1.26 1.30 1.37 1.40 1.29 1.18 1.06
1.35 1.26 1.04 0.94 0.84 0.74 0.68 0.60 0.55 0.45 0.39 0.37 0.43 0.55 0.58 0.61 0.62 0.57 0.52 0.48 0.45 0.54 0.62 0.65 0.68 0.65 0.64 0.64 0.65 0.63 0.68 0.78 0.88 0.84 0.80 0.99 1.12 1.13 1.13 1.00 1.07 1.16 1.30 1.50 1.57 1.43 1.36 1.30 1.25
1.08 1.18 1.26 1.05 0.86 0.69 0.69 0.80 0.60 0.51 0.49 0.47 0.49 0.52 0.57 0.55 0.55 0.53 0.48 0.45 0.45 0.51 0.58 0.64 0.68 0.73 0.74 0.75 0.80 0.73 0.67 0.71 0.71 0.67 0.67 0.78 0.90 0.98 1.09 1.09 1.07 1.10 1.30 1.55 1.72 1.60 1.49 1.34 1.33
1.14 1.33 1.63 1.31 1.09 0.85 0.93 1.08 0.57 0.51 0.56 0.52 0.48 0.47 0.46 0.44 0.45 0.47 0.47 0.46 0.47 0.49 0.48 0.51 0.53 0.62 0.66 0.71 0.77 0.84 0.82 0.82 0.79 0.81 0.78 0.73 0.86 0.99 1.11 1.16 1.12 1.12 1.31 1.56 1.78 1.83 1.80 1.70 1.61
1.29 1.28 1.29 1.26 1.09 0.90 0.88 0.83 0.50 0.47 0.56 0.58 0.50 0.46 0.43 0.33 0.33 0.37 0.37 0.39 0.43 0.43 0.37 0.37 0.41 0.43 0.47 0.52 0.61 0.73 0.80 0.86 0.92 0.93 0.94 0.94 1.00 1.03 1.15 1.32 1.34 1.33 1.45 1.55 1.60 1.72 1.74 1.78 1.76
0.97 0.90 0.92 1.05 0.89 0.86 0.81 0.59 0.43 0.46 0.51 0.53 0.55 0.50 0.44 0.31 0.25 0.25 0.28 0.32 0.34 0.35 0.35 0.36 0.38 0.36 0.35 0.39 0.50 0.63 0.70 0.76 0.93 1.00 1.05 1.32 1.45 1.25 1.21 1.33 1.35 1.40 1.59 1.66 1.77 1.98 1.92 1.81 1.90
0.66 0.62 0.73 0.76 0.64 0.77 0.72 0.53 0.43 0.40 0.38 0.40 0.46 0.48 0.44 0.33 0.22 0.14 0.13 0.18 0.24 0.22 0.21 0.27 0.30 0.36 0.35 0.31 0.37 0.50 0.61 0.74 0.87 1.04 1.09 1.32 1.44 1.35 1.36 1.37 1.39 1.43 1.52 1.58 1.77 2.13 2.15 1.96 1.85
0.62 0.64 0.69 0.65 0.58 0.66 0.72 0.58 0.45 0.36 0.32 0.33 0.36 0.39 0.38 0.29 0.19 0.14 0.11 0.13 0.18 0.21 0.15 0.17 0.21 0.29 0.36 0.38 0.44 0.58 0.76 0.87 0.98 1.13 1.19 1.29 1.32 1.32 1.24 1.40 1.50 1.47 1.61 1.69 1.86 2.14 2.35 2.12 1.93
0.56 0.63 0.59 0.62 0.67 0.61 0.70 0.75 0.57 0.39 0.34 0.34 0.33 0.34 0.32 0.23 0.19 0.16 0.13 0.12 0.11 0.15 0.12 0.15 0.23 0.35 0.52 0.68 0.90 1.16 1.45 1.59 1.50 1.37 1.43 1.53 1.61 1.57 1.50 1.59 1.71 1.63 1.69 1.78 1.82 1.91 2.35 2.48 2.23
0.64 0.43 0.41 0.50 0.72 0.73 0.61 0.80 0.58 0.40 0.39 0.40 0.36 0.30 0.27 0.23 0.21 0.17 0.15 0.14 0.13 0.19 0.24 0.33 0.44 0.60 0.76 0.96 1.19 1.45 1.71 1.89 1.91 1.92 1.97 1.94 1.89 1.78 1.67 1.68 1.73 1.73 1.80 1.78 1.66 1.80 2.22 2.67 2.70
0.51 0.43 0.41 0.46 0.64 0.62 0.56 0.59 0.51 0.42 0.48 0.49 0.46 0.40 0.36 0.33 0.31 0.30 0.27 0.25 0.25 0.35 0.48 0.59 0.80 0.96 1.09 1.16 1.25 1.47 1.58 1.66 1.78 1.92 1.99 2.00 1.92 1.80 1.65 1.59 1.67 1.73 1.81 1.80 1.86 2.05 2.33 2.61 2.86
0.42 0.50 0.53 0.58 0.66 0.62 0.43 0.44 0.53 0.44 0.48 0.57 0.54 0.47 0.42 0.38 0.36 0.37 0.41 0.40 0.43 0.64 0.87 1.00 1.10 1.19 1.18 1.16 1.18 1.31 1.46 1.55 1.65 1.81 1.87 1.81 1.69 1.65 1.58 1.55 1.54 1.51 1.58 1.67 1.86 2.12 2.25 2.44 2.67
0.40 0.60 0.75 0.76 0.68 0.49 0.28 0.34 0.45 0.36 0.34 0.42 0.45 0.42 0.38 0.31 0.30 0.34 0.42 0.55 0.73 0.98 1.19 1.31 1.31 1.21 1.07 1.04 1.11 1.17 1.32 1.49 1.55 1.56 1.57 1.57 1.50 1.43 1.44 1.44 1.41 1.31 1.30 1.42 1.63 1.87 1.92 2.04 2.27
0.35 0.44 0.65 0.71 0.59 0.43 0.32 0.46 0.49 0.36 0.27 0.24 0.24 0.26 0.31 0.34 0.40 0.41 0.46 0.65 0.93 1.18 1.42 1.68 1.65 1.41 1.19 1.13 1.19 1.22 1.32 1.40 1.40 1.31 1.32 1.35 1.31 1.25 1.17 1.19 1.22 1.20 1.19 1.23 1.36 1.51 1.56 1.65 1.87
0.31 0.33 0.34 0.51 0.44 0.39 0.35 0.41 0.37 0.26 0.20 0.19 0.22 0.27 0.36 0.41 0.50 0.59 0.69 0.78 1.00 1.22 1.54 1.82 1.86 1.65 1.49 1.40 1.34 1.35 1.27 1.20 1.13 1.04 1.04 1.06 1.09 1.02 0.98 1.03 1.13 1.19 1.13 1.10 1.20 1.33 1.35 1.47 1.63
0.25 0.27 0.30 0.51 0.58 0.54 0.40 0.41 0.34 0.22 0.17 0.19 0.30 0.35 0.42 0.50 0.52 0.66 0.91 1.12 1.36 1.31 1.44 1.68 1.61 1.53 1.50 1.51 1.49 1.39 1.25 1.13 1.09 1.02 1.01 0.97 1.01 0.94 0.94 0.95 0.95 0.98 0.99 1.03 1.17 1.32 1.39 1.41 1.48
0.23 0.26 0.28 0.38 0.41 0.56 0.64 0.54 0.31 0.27 0.27 0.32 0.41 0.44 0.49 0.56 0.60 0.74 0.90 1.05 1.24 1.34 1.35 1.40 1.38 1.38 1.35 1.27 1.22 1.10 0.90 0.80 0.81 0.83 0.81 0.75 0.78 0.74 0.75 0.71 0.75 0.88 0.89 0.89 1.04 1.12 1.14 1.27 1.35
0.26 0.28 0.30 0.48 0.50 0.50 0.71 0.73 0.41 0.40 0.44 0.53 0.60 0.64 0.68 0.69 0.73 0.82 0.90 1.03 1.10 1.11 1.14 1.22 1.16 1.14 1.09 0.99 0.89 0.76 0.63 0.57 0.62 0.64 0.60 0.52 0.53 0.50 0.55 0.59 0.58 0.77 0.94 0.96 1.00 1.01 0.99 1.10 1.19